Regional Weather Roundup
Issued by NWS

Home | Current Version | Previous Version | Graphics & Text | Print | Product List | Glossary On
Versions: 1 2 3 4 5 6 7 8 9 10 11 12 13 14 15 16 17 18 19 20 21 22 23 24 25 26 27 28 29 30 31 32 33 34 35 36 37 38 39 40 41 42 43 44 45 46 47 48 49 50
000
ASUS45 KBOU 260207
RWRCO

WEATHER ROUNDUP FOR COLORADO
NATIONAL WEATHER SERVICE DENVER/BOULDER CO
800 PM MDT SUN JUN 25 2017

NOTE: "FAIR" INDICATES FEW OR NO CLOUDS BELOW 12000 FEET WITH NO
SIGNIFICANT WEATHER AND/OR OBSTRUCTIONS TO VISIBILITY.

COZ001>005-013-030-031-260300-
...NORTHWEST COLORADO...

CITY           SKY/WX    TMP DP  RH WIND       PRES   REMARKS
CRAIG          FAIR      78  25  14 N7        30.26S
HAYDEN         FAIR      75  28  17 N8        30.29R
MEEKER         FAIR      78  27  15 NE8       30.26S
RABBIT EARS PA FAIR      55  30  38 NW5       30.59S
STEAMBOAT SPGS FAIR      73  35  25 NW5       30.31R
WALDEN         FAIR      64  28  25 N12       30.42S
$$

COZ006>008-011-260300-
...WEST CENTRAL VALLEYS...

CITY           SKY/WX    TMP DP  RH WIND       PRES   REMARKS
GRAND JUNCTION FAIR      91  27  10 W8        30.06S
MONTROSE       FAIR      85  23  10 NW7       30.15R
EAGLE          FAIR      79  31  17 N15G23    30.27R
RIFLE          FAIR      85  27  12 N10G20    30.16R
DELTA          FAIR      92  24   8 N13       30.09S
NUCLA          FAIR      86  14   7 NW8       30.19R
$$

COZ017>023-064>068-260300-
...SOUTHWEST COLORADO...

CITY           SKY/WX    TMP DP  RH WIND       PRES   REMARKS
DURANGO        FAIR      83  23  11 W12       30.19R
CORTEZ         FAIR      86  26  11 N6        30.15R
PAGOSA SPRINGS FAIR      82  19   9 SW8       30.27R
TELLURIDE      FAIR      72  25  17 CALM      30.44S
WOLF CREEK PAS FAIR      59  25  27 S9        30.70R
$$

COZ009-010-012-014-032>034-037-058>063-260300-
...CENTRAL COLORADO...

CITY           SKY/WX    TMP DP  RH WIND       PRES   REMARKS
ASPEN          FAIR      72  20  14 NW13      30.32S
BUENA VISTA    FAIR      72  43  35 E12       30.35R
COPPER MTN     FAIR      59  23  25 NW15      30.68R
BERTHOUD PASS  FAIR      46  34  61 NW24G31   30.71S
COTTONWOOD PAS FAIR      66  37  34 S6        30.49R
GUNNISON       FAIR      75  33  21 N5        30.31R
KREMMLING      NOT AVBL
LEADVILLE      FAIR      66  19  16 NW8G16    30.49R
MONARCH PASS   FAIR      52  43  71 NE14      30.76R
SALIDA         FAIR      72  47  41 SE20G28   30.38R
SUNLIGHT       FAIR      59  23  25 NW8G16    30.62R
WILKERSON PASS CLOUDY    48  43  81 E12G20    30.64S
$$

COZ069>075-260300-
...SAN LUIS VALLEY/SANGRE DE CRISTO MOUNTAINS...

CITY           SKY/WX    TMP DP  RH WIND       PRES   REMARKS
ALAMOSA        FAIR      70  46  42 E22G29    30.27R
DEL NORTE      FAIR      76  35  22 N10       30.30S
LA VETA PASS   TSTM      50  48  93 MISG      30.65R VSB 3/4
SAGUACHE       FAIR      77  19  11 NW18G28   30.30R
$$

COZ035-036-038>040-260300-
...NORTHERN COLORADO FRONT RANGE...

CITY           SKY/WX    TMP DP  RH WIND       PRES   REMARKS
DENVER INTL AP MOCLDY    66  53  63 E16       30.30R
DMNS CITY PARK   N/A     69  53  56 NE6G24    30.28S
AURORA         MOCLDY    66  54  65 E13       30.31R
FRONT RANGE AP FAIR      66  54  63 E12G18    30.31S
ERIE MUNI ARPT FAIR      67  51  56 NW5       30.29R
BOULDER MUN AP FAIR      68  48  49 CALM      30.30R
CENTENNIAL     MOCLDY    67  54  63 E10       30.31R
BROOMFIELD     MOCLDY    68  50  52 N7        30.32R
FORT COLLINS   FAIR      72  51  47 NE3       30.29S
LONGMONT       FAIR      72  51  47 CALM      30.30S
$$

COZ041-046-047-076>085-087-088-260300-
...PIKES PEAK/PALMER DIVIDE AND SOUTHERN FOOTHILLS...

CITY           SKY/WX    TMP DP  RH WIND       PRES   REMARKS
COLO. SPRINGS  LGT RAIN  61  58  90 NE12      30.34R
A. F. ACADEMY  CLOUDY    66  54  66 E12       30.34R
SCHRIEVER AFB  LGT RAIN  61  57  88 E14G32    30.34R
CHEYENNE MTN   CLOUDY    62  53  72 SE13      30.32R
ELLICOTT       MIX PCPN N/A N/A N/A E16G23    30.32R
FALCON           N/A     61  52  73 E13       30.38R
FORT CARSON    CLOUDY    67  55  65 E13       30.30R
LIMON          MOCLDY    63  55  75 SE13      30.30R
MONUMENT HILL  CLOUDY    61  52  72 SE13      30.38R
CANON CITY     MOCLDY    72  57  60 E15G21    30.26R
WALSENBURG     CLOUDY    68  63  83 E12       30.30R
TRINIDAD       LGT RAIN  61  55  81 S10G33    30.24S
$$

COZ042>045-048>051-090-091-260300-
...NORTHEAST COLORADO...

CITY           SKY/WX    TMP DP  RH WIND       PRES   REMARKS
GREELEY ARPT   FAIR      69  52  54 CALM      30.28S
AKRON          FAIR      62  53  72 SE10      30.29S
BURLINGTON     FAIR      61  58  90 E9        30.27S
WRAY           MOCLDY    64  54  68 E6        30.28S
YUMA           FAIR      61  54  77 SE3       30.28F
STERLING       FAIR      66  54  63 S8        30.25S
HOLYOKE        NOT AVBL
FORT MORGAN    FAIR      64  54  68 SE7       30.28S
$$

COZ086-089-092>099-260300-
...SOUTHEAST COLORADO...

CITY           SKY/WX    TMP DP  RH WIND       PRES   REMARKS
PUEBLO         FAIR      71  59  65 E17       30.23R
LA JUNTA       CLOUDY    69  60  73 E22       30.21R
LAMAR          CLOUDY    67  59  75 SE17      30.21R
SPRINGFIELD      N/A     61  61 100 E16       30.23R
$$



USA.gov is the U.S. government's official web portal to all federal, state and local government web resources and services.